logo
Search for airport 
image banner adimage banner adimage banner ad
image banner ad

OEGN - Jazan / King Abdullah Bin Abdulaziz (Regional)

Located in Jazan, Saudi Arabia

ICAO - OEGN, IATA - GIZ

Data provided by Airmate  

General information

Coordinates: N16°54'4" E42°35'9"
Elevation is 20 feet MSL.
 
View others Airports in Jlzan

Operational data

Special qualification required
Current time UTC:
Current local time:
Weather
METAR: OEGN 241900Z 04004KT CAVOK 33/26 Q1005 NOSIG
TAF: TAF OEGN 241100Z 2412/2518 28012KT 7000 FEW030 PROB30 TEMPO 2412/2418 FEW035CB BECMG 2418/2420 VRB03KT BECMG 2506/2508 24010KT
View NOTAMs / SUP AIP / TFR affecting this airport [VIEW]
Communications frequencies: [VIEW]

Runways:

RWY identifierQFULength (ft)Width (ft)SurfaceLDA (ft)
15150°10007148ASP
33330°10007148ASP

Airport contact information

Address: Jazan Saudi Arabia

Satellite view of OEGN